Wetterstation Vordersexau
Wetterdaten: Februar 2011
Datum Temp. A. Feuchte A. Luftdruck Regen Wind Richtung Taupunkt Windchill Windben
01.02.2011 -2,0 C 84 % 1025,2 hPa 0,0 l/m 0,2 km/h W-NW -4,3 C -2,0 C 0,1 km/h
02.02.2011 -0,5 C 79 % 1029,2 hPa 0,0 l/m 1,0 km/h W-NW -3,7 C -0,5 C 0,6 km/h
03.02.2011 0,1 C 87 % 1028,6 hPa 0,4 l/m 1,3 km/h S-SO -1,8 C -0,2 C 0,7 km/h
04.02.2011 6,3 C 80 % 1028,4 hPa 0,0 l/m 20,6 km/h W-SW 3,0 C -0,5 C 11,5 km/h
05.02.2011 8,8 C 74 % 1028,7 hPa 0,0 l/m 24,5 km/h W-SW 4,3 C 1,0 C 13,6 km/h
06.02.2011 6,3 C 76 % 1027,2 hPa 0,0 l/m 2,2 km/h SO 2,1 C 5,9 C 1,2 km/h
07.02.2011 4,5 C 70 % 1021,9 hPa 0,0 l/m 0,5 km/h O-NO -1,2 C 4,5 C 0,3 km/h
08.02.2011 4,9 C 74 % 1021,2 hPa 0,0 l/m 1,1 km/h O-SO 0,4 C 4,9 C 0,6 km/h
09.02.2011 2,1 C 87 % 1021,1 hPa 0,0 l/m 0,2 km/h O 0,2 C 2,1 C 0,1 km/h
10.02.2011 6,2 C 73 % 1019,4 hPa 0,0 l/m 1,9 km/h SO 1,3 C 5,8 C 1,1 km/h
11.02.2011 9,0 C 76 % 1015,6 hPa 0,4 l/m 4,6 km/h O-SO 4,6 C 8,0 C 2,5 km/h
12.02.2011 7,3 C 76 % 1014,0 hPa 0,0 l/m 0,5 km/h SO 2,9 C 7,3 C 0,3 km/h
13.02.2011 7,7 C 80 % 1009,8 hPa 1,1 l/m 0,3 km/h SO 4,3 C 7,7 C 0,2 km/h
14.02.2011 7,5 C 78 % 1005,0 hPa 0,0 l/m 0,8 km/h SO 3,7 C 7,4 C 0,5 km/h
15.02.2011 6,3 C 84 % 1000,0 hPa 1,4 l/m 5,6 km/h S-SO 3,9 C 4,7 C 3,1 km/h
16.02.2011 5,0 C 82 % 996,9 hPa 0,0 l/m 0,9 km/h SO 2,1 C 4,9 C 0,5 km/h
17.02.2011 4,0 C 85 % 999,6 hPa 0,0 l/m 0,2 km/h O-NO 1,6 C 4,0 C 0,1 km/h
18.02.2011 3,9 C 86 % 1010,5 hPa 0,0 l/m 0,0 km/h W 1,8 C 3,9 C 0,0 km/h
19.02.2011 4,8 C 80 % 1012,8 hPa 0,0 l/m 0,8 km/h NW 1,6 C 4,7 C 0,4 km/h
20.02.2011 2,5 C 88 % 1011,0 hPa 4,6 l/m 0,5 km/h W 0,7 C 2,5 C 0,3 km/h
21.02.2011 0,3 C 88 % 1012,6 hPa 0,7 l/m 0,0 km/h W -1,5 C 0,3 C 0,0 km/h
22.02.2011 -0,9 C 89 % 1013,2 hPa 0,0 l/m 0,0 km/h W -2,5 C -0,9 C 0,0 km/h
23.02.2011 -0,5 C 82 % 1022,2 hPa 1,4 l/m 0,2 km/h W -3,4 C -0,5 C 0,1 km/h
24.02.2011 2,3 C 86 % 1023,5 hPa 1,1 l/m 0,2 km/h SO 0,2 C 2,3 C 0,1 km/h
25.02.2011 6,0 C 86 % 1025,8 hPa 0,4 l/m 0,2 km/h SO 3,8 C 6,0 C 0,1 km/h
26.02.2011 6,1 C 84 % 1016,8 hPa 1,8 l/m 3,9 km/h SO 3,6 C 5,0 C 2,2 km/h
27.02.2011 5,1 C 88 % 1013,8 hPa 5,3 l/m 0,5 km/h O-SO 3,3 C 5,1 C 0,3 km/h
28.02.2011 4,7 C 81 % 1019,1 hPa 0,0 l/m 2,9 km/h NO 1,7 C 4,1 C 1,6 km/h
Min-Datum 23.02.11 07.02.11 16.02.11 11 Tage 01.02.11 - 23.02.11 28.02.11 01.02.11
Min-Zeit 07:30 16:30 16:30 - 00:30 - 07:30 23:30 00:30
Minimum -7,4 C 32 % 995,2 hPa - 0,0 km/h - -8,9 C -10,3 C 0,0 km/h
Max-Datum 07.02.11 22.02.11 02.02.11 27.02.11 28.02.11 - 06.02.11 07.02.11 28.02.11
Max-Zeit 15:30 20:30 10:30 16:30 23:30 - 10:30 15:30 23:30
Maximum 20,9 C 90 % 1030,6 hPa 5,3 l/m 64,2 km/h
NO
- 8,6 C 20,9 C 35,6 km/h
NO
Durchschnitt 4,2 C 82 % 1016,9 hPa #18,5 l/m 2,7 km/h W 1,2 C 3,5 C 1,5 km/h

Durchschnitt Minimum Temp.0,1 C
Durchschnitt Maximum Temp.9,8 C
www.sexauwetter.de